Simultaneous Nadir Overpasses (SNOs) Predictions

Prediction of SNOs between NOAA-19 and NPP Satellite Orbit:

Table of predicted SNOs for the next 14.0 days since TLE Epoch: 2/12/2016
Index Date (NOAA-19) Time (NOAA-19) Lat,Lon (NOAA-19) SZA (NOAA-19 ) Date (NPP) Time (NPP) Lat,Lon (NPP) SZA (NPP ) Distance(km) Time Diff (sec)
1 02/20/2016 16:39:44 81.02,-123.24 95.92 02/20/2016 16:40:47 81.03,-123.37 95.90 2.33 63
2 02/20/2016 17:30:40 -81.02, 44.01 84.10 02/20/2016 17:31:32 -81.03, 43.89 84.11 2.19 52
3 02/20/2016 18:21:46 81.02,-148.66 95.88 02/20/2016 18:22:17 81.03,-148.81 95.89 2.78 31
4 02/20/2016 19:12:42 -81.02, 18.58 84.13 02/20/2016 19:13:02 -81.03, 18.44 84.12 2.62 20
5 02/20/2016 20:03:48 81.02,-174.08 95.84 02/20/2016 20:03:47 81.03,-174.26 95.87 3.24 1
6 02/20/2016
